N4FLB Weather Reports


Display with metric or nautical units.
time (UTC)temp
F
wind
direction
speed
MPH
gust
MPH
rain 1hr
in
rain 24hr
in
rain mn
in
humidity
%
barometer
mb
20260506060904 69 200 2.0 5.0 0.00 0.00 0.00 88 1014.3
20260506050926 70 196 2.0 5.0 0.00 0.00 0.00 83 1014.6
20260506044505 70 190 4.0 10.0 0.00 0.00 0.00 81 1014.6
20260506043605 71 201 3.0 8.0 0.00 0.00 0.00 80 1014.8
20260506042704 71 203 4.0 11.0 0.00 0.00 0.00 79 1014.8
20260506041804 71 200 5.0 14.0 0.00 0.00 0.00 79 1015.1
20260506040904 71 209 4.0 14.0 0.00 0.00 0.00 78 1015.3
20260506040004 72 206 4.0 10.0 0.00 0.00 0.00 78 1015.1
20260506035404 72 209 4.0 10.0 0.00 0.00 0.00 77 1015.3
20260506034504 72 205 5.0 12.0 0.00 0.00 0.00 77 1014.9
20260506033604 72 209 4.0 10.0 0.00 0.00 0.00 76 1015.1
20260506032725 73 198 4.0 11.0 0.00 0.00 0.00 76 1014.7
20260506031825 73 203 4.0 14.0 0.00 0.00 0.00 76 1014.6
20260506030925 73 208 3.0 12.0 0.00 0.00 0.00 75 1014.9
20260506030004 73 210 4.0 12.0 0.00 0.00 0.00 75 1014.7
20260506025404 73 205 4.0 12.0 0.00 0.00 0.00 75 1014.8
20260506024504 73 195 4.0 12.0 0.00 0.00 0.00 75 1014.5
20260506023625 73 201 3.0 7.0 0.00 0.00 0.00 75 1014.7
20260506022704 74 215 2.0 7.0 0.00 0.00 0.00 74 1014.7
20260506021804 74 203 2.0 6.0 0.00 0.00 0.00 74 1014.5
20260506020925 74 204 3.0 8.0 0.00 0.00 0.00 74 1014.3
20260506020004 74 172 3.0 6.0 0.00 0.00 0.00 74 1013.9
20260506015404 74 170 3.0 6.0 0.00 0.00 0.00 74 1013.9
20260506014504 74 181 2.0 5.0 0.00 0.00 0.00 74 1014.1
20260506013604 74 175 2.0 6.0 0.00 0.00 0.00 73 1014.2
20260506012704 74 178 2.0 5.0 0.00 0.00 0.00 73 1014.0
20260506011804 74 178 2.0 7.0 0.00 0.00 0.00 72 1013.8
20260506010904 75 183 2.0 6.0 0.00 0.00 0.00 72 1013.9
20260506010004 75 169 2.0 6.0 0.00 0.00 0.00 71 1013.7
20260506005404 75 162 3.0 7.0 0.00 0.00 0.00 70 1013.7
20260506004504 75 173 2.0 6.0 0.00 0.00 0.00 70 1013.6
20260506003603 76 171 2.0 5.0 0.00 0.00 0.00 70 1013.5
20260506002704 76 182 0.0 3.0 0.00 0.00 0.00 69 1013.6
20260506001803 77 166 1.0 4.0 0.00 0.00 0.00 67 1013.6
20260506000903 77 161 2.0 5.0 0.00 0.00 0.00 67 1013.5
20260506000004 78 168 2.0 6.0 0.00 0.00 0.00 65 1013.6
20260505235404 78 177 2.0 6.0 0.00 0.00 0.00 64 1013.7
20260505234503 79 177 2.0 7.0 0.00 0.00 0.00 63 1013.8
20260505233603 79 182 3.0 6.0 0.00 0.00 0.00 63 1013.8
20260505232703 79 165 4.0 9.0 0.00 0.00 0.00 61 1013.8
20260505231803 80 174 3.0 8.0 0.00 0.00 0.00 62 1013.9
20260505230903 79 175 3.0 7.0 0.00 0.00 0.00 62 1013.9
20260505230024 79 199 2.0 6.0 0.00 0.00 0.00 61 1014.0
20260505225403 79 191 2.0 6.0 0.00 0.00 0.00 60 1013.9
20260505224503 79 203 3.0 8.0 0.00 0.00 0.00 60 1014.0
20260505223603 79 208 3.0 9.0 0.00 0.00 0.00 58 1013.9
20260505222703 79 211 3.0 12.0 0.00 0.00 0.00 58 1013.9
20260505221803 79 198 4.0 11.0 0.00 0.00 0.00 57 1013.9
20260505220903 80 204 5.0 10.0 0.00 0.00 0.00 56 1013.8
20260505220005 80 204 4.0 10.0 0.00 0.00 0.00 57 1013.9
20260505215405 81 191 4.0 11.0 0.00 0.00 0.00 55 1013.8
20260505214526 82 184 3.0 9.0 0.00 0.00 0.00 55 1013.9
20260505213605 81 182 3.0 9.0 0.00 0.00 0.00 56 1014.1
20260505212726 81 171 5.0 10.0 0.00 0.00 0.00 58 1014.0
20260505211805 80 162 5.0 11.0 0.00 0.00 0.00 55 1013.9
20260505210925 81 169 4.0 9.0 0.00 0.00 0.00 55 1013.8
20260505210004 80 174 6.0 12.0 0.00 0.00 0.00 54 1014.2
20260505205404 80 175 5.0 11.0 0.00 0.00 0.00 53 1014.1
20260505204505 80 207 4.0 8.0 0.00 0.00 0.00 53 1014.3
20260505203604 80 194 4.0 10.0 0.00 0.00 0.00 52 1014.4
20260505202704 80 183 3.0 9.0 0.00 0.00 0.00 52 1014.4
20260505201825 80 182 5.0 15.0 0.00 0.00 0.00 51 1014.6
20260505200904 80 174 4.0 12.0 0.00 0.00 0.00 53 1014.6
20260505200004 79 180 5.0 11.0 0.00 0.00 0.00 52 1014.8
20260505195404 79 199 5.0 10.0 0.00 0.00 0.00 51 1015.1
20260505194505 79 183 4.0 10.0 0.00 0.00 0.00 54 1014.9
20260505193605 79 168 5.0 9.0 0.00 0.00 0.00 54 1015.2
20260505192704 78 161 6.0 13.0 0.00 0.00 0.00 55 1015.3
20260505191825 78 172 5.0 13.0 0.00 0.00 0.00 54 1015.3
20260505190904 78 189 5.0 14.0 0.00 0.00 0.00 54 1015.6
20260505190004 78 172 5.0 12.0 0.00 0.00 0.00 56 1015.5
20260505185404 78 180 5.0 11.0 0.00 0.00 0.00 57 1015.5
20260505184526 77 173 6.0 14.0 0.00 0.00 0.00 55 1015.8
20260505183604 78 171 5.0 14.0 0.00 0.00 0.00 57 1015.8
20260505182725 78 189 5.0 11.0 0.00 0.00 0.00 55 1015.9
20260505181804 78 183 4.0 11.0 0.00 0.00 0.00 58 1016.0
20260505180904 77 157 6.0 12.0 0.00 0.00 0.00 57 1016.2
20260505180004 76 163 5.0 14.0 0.00 0.00 0.00 57 1016.4
20260505175425 76 165 4.0 9.0 0.00 0.00 0.00 59 1016.4
20260505174504 75 156 6.0 12.0 0.00 0.00 0.00 59 1016.4
20260505173625 75 159 4.0 12.0 0.00 0.00 0.00 60 1016.7
20260505172704 75 154 3.0 9.0 0.00 0.00 0.00 62 1016.8
20260505171804 74 167 4.0 11.0 0.00 0.00 0.00 62 1016.9
20260505170904 74 223 4.0 9.0 0.00 0.00 0.00 61 1016.9
20260505170004 74 168 4.0 10.0 0.00 0.00 0.00 61 1016.9
20260505165404 74 209 3.0 8.0 0.00 0.00 0.00 62 1016.9
20260505164504 74 201 4.0 9.0 0.00 0.00 0.00 61 1017.0
20260505163604 74 158 4.0 11.0 0.00 0.00 0.00 60 1017.0
20260505162704 73 179 5.0 12.0 0.00 0.00 0.00 62 1017.1
20260505161804 73 185 4.0 11.0 0.00 0.00 0.00 62 1017.2
20260505160904 73 215 4.0 10.0 0.00 0.00 0.00 62 1017.3
20260505152704 71 198 4.0 11.0 0.00 0.00 0.00 66 1017.8
20260505151804 70 183 4.0 9.0 0.00 0.00 0.00 67 1018.1
20260505150903 70 190 4.0 9.0 0.00 0.00 0.00 70 1017.7
20260505124526 58 153 3.0 5.0 0.00 0.00 0.00 88 1016.7
20260505123605 58 150 2.0 4.0 0.00 0.00 0.00 89 1016.8
20260505122705 58 124 2.0 3.0 0.00 0.00 0.00 91 1016.7
20260505121806 56 161 0.0 2.0 0.00 0.00 0.00 93 1016.7
20260505120905 56 159 0.0 2.0 0.00 0.00 0.00 94 1016.6
20260505120026 55 154 1.0 2.0 0.00 0.00 0.00 95 1016.2
20260505115405 54 146 1.0 2.0 0.00 0.00 0.00 96 1016.1
20260505114505 54 89 0.0 1.0 0.00 0.00 0.00 98 1016.0
20260505113604 53 0 0.0 0.0 0.00 0.00 0.00 98 1015.7
20260505112705 52 0 0.0 0.0 0.00 0.00 0.00 98 1015.5
20260505111805 52 0 0.0 0.0 0.00 0.00 0.00 97 1015.5
20260505110904 52 0 0.0 0.0 0.00 0.00 0.00 97 1015.2
20260505101804 53 115 0.0 2.0 0.00 0.00 0.00 96 1015.3
20260505100904 54 0 0.0 0.0 0.00 0.00 0.00 96 1015.2
20260505100004 54 0 0.0 0.0 0.00 0.00 0.00 96 1015.4
20260505095425 54 0 0.0 0.0 0.00 0.00 0.00 96 1015.4
20260505094504 54 0 0.0 0.0 0.00 0.00 0.00 95 1015.4
20260505093604 54 0 0.0 0.0 0.00 0.00 0.00 96 1015.7
20260505092704 54 0 0.0 0.0 0.00 0.00 0.00 94 1015.6
20260505091804 54 0 0.0 0.0 0.00 0.00 0.00 94 1015.9
20260505090904 54 0 0.0 0.0 0.00 0.00 0.00 93 1015.8
20260505090004 54 0 0.0 0.0 0.00 0.00 0.00 93 1015.8
20260505085404 54 0 0.0 0.0 0.00 0.00 0.00 93 1015.9
20260505084504 54 0 0.0 0.0 0.00 0.00 0.00 92 1015.8
20260505083604 54 0 0.0 0.0 0.00 0.00 0.00 91 1015.9
20260505082704 55 0 0.0 0.0 0.00 0.00 0.00 91 1016.0
20260505081804 55 0 0.0 0.0 0.00 0.00 0.00 91 1016.1
20260505080904 55 0 0.0 0.0 0.00 0.00 0.00 90 1015.8
20260505080004 55 0 0.0 0.0 0.00 0.00 0.00 90 1016.0
20260505075404 56 0 0.0 0.0 0.00 0.00 0.00 89 1015.9
20260505074503 56 0 0.0 0.0 0.00 0.00 0.00 89 1015.8
20260505073604 56 0 0.0 0.0 0.00 0.00 0.00 88 1015.9
20260505072704 56 0 0.0 0.0 0.00 0.00 0.00 88 1015.9
20260505071804 57 0 0.0 0.0 0.00 0.00 0.00 86 1015.9
20260505070904 57 0 0.0 0.0 0.00 0.00 0.00 86 1016.0
20260505070025 57 0 0.0 0.0 0.00 0.00 0.00 86 1016.0
20260505065404 57 0 0.0 0.0 0.00 0.00 0.00 86 1016.0
20260505064504 58 0 0.0 0.0 0.00 0.00 0.00 86 1016.0
20260505063604 58 0 0.0 0.0 0.00 0.00 0.00 86 1016.1
20260505062704 57 0 0.0 0.0 0.00 0.00 0.00 86 1016.0
20260505061803 58 0 0.0 0.0 0.00 0.00 0.00 85 1016.2